TimeCST,TemperatureF,Dew PointF,Humidity,Sea Level PressureIn,VisibilityMPH,Wind Direction,Wind SpeedMPH,Gust SpeedMPH,PrecipitationIn,Events,Conditions,WindDirDegrees,DateUTC
12:55 AM,39.6,32.0,74,30.29,10.0,SSW,8.1,-,N/A,,Overcast,200,2013-01-05 06:55:00
1:55 AM,39.0,32.5,78,30.28,10.0,SSW,5.8,-,N/A,,Overcast,200,2013-01-05 07:55:00
2:55 AM,38.3,33.1,81,30.27,10.0,South,6.9,-,N/A,,Overcast,190,2013-01-05 08:55:00
3:55 AM,36.9,32.9,86,30.25,10.0,South,10.4,-,N/A,,Mostly Cloudy,180,2013-01-05 09:55:00
4:55 AM,36.5,32.7,86,30.25,10.0,South,9.2,-,N/A,,Overcast,190,2013-01-05 10:55:00
5:55 AM,36.1,32.4,86,30.24,10.0,SSW,9.2,-,N/A,,Overcast,210,2013-01-05 11:55:00
6:55 AM,36.1,32.7,87,30.25,10.0,SSW,9.2,-,N/A,,Overcast,200,2013-01-05 12:55:00
7:55 AM,36.9,33.1,86,30.26,10.0,SSW,6.9,-,N/A,,Overcast,200,2013-01-05 13:55:00
8:55 AM,37.4,33.3,85,30.26,10.0,South,12.7,-,N/A,,Mostly Cloudy,190,2013-01-05 14:55:00
9:55 AM,40.5,32.7,74,30.26,10.0,SW,13.8,19.6,N/A,,Clear,220,2013-01-05 15:55:00
10:55 AM,43.0,32.2,66,30.24,10.0,SW,16.1,-,N/A,,Clear,230,2013-01-05 16:55:00
11:55 AM,45.3,31.1,58,30.21,10.0,WSW,16.1,23.0,N/A,,Clear,240,2013-01-05 17:55:00
12:55 PM,47.3,29.8,51,30.19,10.0,SW,10.4,17.3,N/A,,Clear,230,2013-01-05 18:55:00
1:55 PM,48.9,29.5,47,30.17,10.0,West,8.1,-,N/A,,Clear,260,2013-01-05 19:55:00
2:55 PM,50.4,28.8,43,30.16,10.0,WSW,9.2,-,N/A,,Clear,240,2013-01-05 20:55:00
3:55 PM,51.3,26.8,39,30.18,10.0,WSW,6.9,-,N/A,,Clear,250,2013-01-05 21:55:00
4:55 PM,50.5,26.6,39,30.19,10.0,WNW,4.6,-,N/A,,Clear,300,2013-01-05 22:55:00
5:55 PM,46.6,26.6,46,30.21,10.0,Calm,Calm,-,N/A,,Clear,0,2013-01-05 23:55:00
6:55 PM,42.8,26.8,53,30.24,10.0,NW,4.6,-,N/A,,Clear,320,2013-01-06 00:55:00
7:55 PM,41.5,24.3,50,30.26,10.0,NNW,5.8,-,N/A,,Clear,330,2013-01-06 01:55:00
8:55 PM,39.6,22.1,50,30.28,10.0,NW,4.6,-,N/A,,Clear,320,2013-01-06 02:55:00
9:55 PM,36.5,22.8,58,30.30,10.0,NNW,10.4,-,N/A,,Clear,340,2013-01-06 03:55:00
10:55 PM,37.4,23.4,57,30.32,10.0,NNW,12.7,-,N/A,,Clear,340,2013-01-06 04:55:00
11:55 PM,36.1,22.6,58,30.33,10.0,NNW,9.2,-,N/A,,Clear,340,2013-01-06 05:55:00